EW2725 Weather Reports


Display with metric or nautical units.
time (UTC)temp
F
wind
direction
speed
MPH
gust
MPH
rain 1hr
in
rain 24hr
in
rain mn
in
humidity
%
barometer
mb
20260507060505 53 358 0.0 0.0 0.00 0.16 0.00 95 1006.4
20260507060014 53 223 1.0 0.0 0.00 0.00 0.00 91 1100.1
20260507060005 53 0 0.0 0.0 0.00 0.16 0.00 95 1006.3
20260507055505 53 357 0.0 0.0 0.00 0.16 0.00 95 1006.4
20260507055006 53 0 0.0 0.0 0.00 0.16 0.00 95 1006.3
20260507054609 53 223 1.0 0.0 0.00 0.00 0.00 91 1100.1
20260507054505 53 0 0.0 0.0 0.00 0.16 0.00 95 1006.4
20260507054006 53 0 0.0 0.0 0.00 0.16 0.00 95 1006.6
20260507053505 53 358 0.0 0.0 0.00 0.16 0.00 95 1006.7
20260507053010 53 223 2.0 0.0 0.00 0.00 0.00 91 1100.1
20260507051600 54 223 2.0 0.0 0.00 0.00 0.00 91 1100.1
20260507051504 54 0 0.0 0.0 0.00 0.16 0.00 95 1006.9
20260507051005 54 358 0.0 0.0 0.00 0.16 0.00 95 1006.9
20260507050134 54 223 2.0 0.0 0.00 0.00 0.00 91 1100.1
20260507050006 54 0 0.0 0.0 0.00 0.16 0.00 95 1007.1
20260507044625 54 209 1.0 0.0 0.00 0.00 0.00 91 1100.1
20260507044505 54 359 0.0 0.0 0.00 0.16 0.00 95 1006.9
20260507044005 54 357 0.0 0.0 0.00 0.16 0.00 95 1006.9
20260507043505 54 357 0.0 0.0 0.00 0.16 0.00 95 1006.9
20260507043127 54 190 2.0 0.0 0.00 0.00 0.20 91 1100.1
20260507042005 54 359 0.0 0.0 0.00 0.16 0.00 95 1007.1
20260507041622 54 220 2.0 0.0 0.00 0.00 0.20 91 1100.1
20260507041505 54 359 0.0 0.0 0.00 0.16 0.00 95 1007.1
20260507041005 54 359 0.0 0.0 0.00 0.16 0.00 95 1007.0
20260507040120 54 200 2.0 0.0 0.00 0.00 0.20 91 1100.1
20260507035504 54 359 0.0 0.0 0.00 0.16 0.16 95 1007.2
20260507034648 54 227 2.0 0.0 0.00 0.00 0.20 91 1100.1
20260507034505 54 0 0.0 0.0 0.00 0.16 0.16 95 1007.4
20260507033103 54 227 3.0 0.0 0.00 0.00 0.20 91 1100.1
20260507032006 54 359 0.0 0.0 0.00 0.16 0.16 94 1007.3
20260507031606 54 222 4.0 0.0 0.00 0.00 0.20 91 1100.1
20260507031505 54 0 0.0 0.0 0.00 0.16 0.16 94 1007.3
20260507030505 54 357 0.0 0.0 0.00 0.16 0.16 94 1006.9
20260507030004 54 227 4.0 0.0 0.00 0.00 0.20 91 1100.1
20260507025005 55 358 0.0 0.0 0.00 0.16 0.16 94 1006.9
20260507024553 55 242 3.0 0.0 0.00 0.00 0.20 91 1100.1
20260507023143 55 242 3.0 0.0 0.00 0.00 0.20 91 1100.1
20260507023005 55 358 0.0 0.0 0.00 0.16 0.16 94 1007.3
20260507022504 55 358 0.0 0.0 0.00 0.16 0.16 94 1007.5
20260507021631 55 238 4.0 0.0 0.00 0.00 0.20 91 1100.1
20260507021504 55 358 0.0 0.0 0.00 0.16 0.16 94 1007.6
20260507020504 55 359 0.0 0.0 0.00 0.16 0.16 94 1007.7
20260507020056 55 234 4.0 0.0 0.00 0.00 0.20 91 1100.1
20260507014505 55 221 5.0 0.0 0.00 0.00 0.20 91 1100.1
20260507013505 56 358 0.0 0.0 0.02 0.16 0.16 94 1008.1
20260507013141 55 227 5.0 0.0 0.00 0.00 0.20 90 1100.1
20260507013005 56 358 0.0 0.0 0.02 0.16 0.16 94 1008.1
20260507012505 56 0 0.0 0.0 0.02 0.16 0.16 94 1008.2
20260507012005 56 358 0.0 0.0 0.03 0.16 0.16 94 1008.2
20260507011642 56 240 5.0 0.0 0.00 0.00 0.20 90 1100.1
20260507011504 56 357 0.0 0.0 0.04 0.16 0.16 94 1008.1
20260507011005 56 358 0.0 0.0 0.04 0.16 0.16 94 1008.2
20260507010138 56 225 6.0 0.0 0.00 0.00 0.20 90 1100.1
20260507005504 56 357 0.0 0.0 0.06 0.16 0.16 94 1008.1
20260507004512 56 236 5.0 0.0 0.00 0.00 0.19 90 1100.1
20260507004505 56 358 0.0 0.0 0.07 0.15 0.15 94 1008.1
20260507003505 56 358 0.0 0.0 0.08 0.14 0.14 94 1008.1
20260507003105 56 246 5.0 0.0 0.00 0.00 0.18 90 1100.1
20260507002504 56 359 0.0 0.0 0.10 0.14 0.14 93 1008.2
20260507001502 56 226 5.0 0.0 0.00 0.00 0.16 90 1100.1
20260507000140 56 166 5.0 0.0 0.00 0.00 0.14 90 1100.1
20260507000005 56 358 0.0 0.0 0.10 0.11 0.11 93 1008.1
20260506235504 56 357 0.0 0.0 0.09 0.10 0.10 93 1008.1
20260506235005 56 357 0.0 0.0 0.09 0.10 0.10 93 1008.1
20260506234637 56 240 5.0 0.0 0.00 0.00 0.12 90 1100.1
20260506234505 56 0 0.0 0.0 0.08 0.08 0.08 93 1008.1
20260506233128 56 236 5.0 0.0 0.00 0.00 0.06 89 1100.1
20260506231625 56 236 6.0 0.0 0.00 0.00 0.05 89 1100.1
20260506230505 56 0 0.0 0.0 0.02 0.02 0.02 91 1008.1
20260506230142 55 216 5.0 0.0 0.00 0.00 0.03 88 1100.1
20260506225007 56 0 0.0 0.0 0.01 0.01 0.01 90 1008.3
20260506224636 56 219 7.0 0.0 0.00 0.00 0.01 87 1100.1
20260506224005 57 358 0.0 0.0 0.00 0.00 0.00 90 1008.4
20260506223504 57 0 0.0 0.0 0.00 0.00 0.00 90 1008.5
20260506223134 56 246 6.0 0.0 0.00 0.00 0.01 86 1100.1
20260506222504 57 358 0.0 0.0 0.00 0.00 0.00 89 1008.6
20260506221631 57 250 6.0 0.0 0.00 0.00 0.00 85 1100.1
20260506221504 58 358 0.0 0.0 0.00 0.00 0.00 88 1008.6
20260506220124 58 234 6.0 0.0 0.00 0.00 0.00 83 1100.1
20260506220005 58 0 0.0 0.0 0.00 0.00 0.00 87 1008.5
20260506215505 58 0 0.0 0.0 0.00 0.00 0.00 87 1008.4
20260506214612 58 231 6.0 0.0 0.00 0.00 0.00 83 1100.1
20260506213505 58 0 0.0 0.0 0.00 0.00 0.00 87 1008.6
20260506213112 58 215 6.0 0.0 0.00 0.00 0.00 83 1100.1
20260506212005 58 0 0.0 0.0 0.00 0.00 0.00 87 1009.0
20260506211616 58 227 6.0 0.0 0.00 0.00 0.00 83 1100.1
20260506211505 58 0 0.0 0.0 0.00 0.00 0.00 87 1009.0
20260506210504 58 0 0.0 0.0 0.00 0.00 0.00 86 1009.1
20260506210121 58 252 7.0 0.0 0.00 0.00 0.00 82 1100.1
20260506204616 58 257 7.0 0.0 0.00 0.00 0.00 81 1100.1
20260506204005 58 0 0.0 0.0 0.00 0.00 0.00 84 1009.1
20260506203145 58 231 6.0 0.0 0.00 0.00 0.00 81 1100.1
20260506202005 58 0 0.0 0.0 0.00 0.00 0.00 84 1009.4
20260506201613 58 236 6.0 0.0 0.00 0.00 0.00 80 1100.1
20260506201005 58 0 0.0 0.0 0.00 0.00 0.00 84 1009.5
20260506200123 58 262 7.0 0.0 0.00 0.00 0.00 79 1100.1
20260506200005 59 0 0.0 0.0 0.00 0.00 0.00 83 1009.6
20260506195505 59 0 0.0 0.0 0.00 0.00 0.00 82 1009.7
20260506195005 59 0 0.0 0.0 0.00 0.00 0.00 82 1009.6
20260506194621 59 217 7.0 0.0 0.00 0.00 0.00 79 1100.1
20260506194004 59 0 0.0 0.0 0.00 0.00 0.00 82 1009.7
20260506193113 59 230 8.0 0.0 0.00 0.00 0.00 79 1100.1
20260506192504 59 0 0.0 0.0 0.00 0.00 0.00 82 1009.8
20260506192005 59 0 0.0 0.0 0.00 0.00 0.00 82 1009.9
20260506191612 59 263 7.0 0.0 0.00 0.00 0.00 78 1100.1
20260506191504 60 0 0.0 0.0 0.00 0.00 0.00 82 1009.9
20260506191005 60 0 0.0 0.0 0.00 0.00 0.00 81 1009.9
20260506190505 60 0 0.0 0.0 0.00 0.00 0.00 81 1009.9
20260506190110 60 249 8.0 0.0 0.00 0.00 0.00 77 1100.1
20260506190005 60 0 0.0 0.0 0.00 0.00 0.00 81 1009.9
20260506185505 60 0 0.0 0.0 0.00 0.00 0.00 81 1009.9
20260506185004 60 0 0.0 0.0 0.00 0.00 0.00 81 1010.0
20260506184516 60 192 8.0 0.0 0.00 0.00 0.00 77 1100.1
20260506184505 60 0 0.0 0.0 0.00 0.00 0.00 81 1010.1
20260506183115 60 194 7.0 0.0 0.00 0.00 0.00 78 1100.1
20260506182506 60 0 0.0 0.0 0.00 0.00 0.00 80 1010.6
20260506182006 61 0 0.0 0.0 0.00 0.00 0.00 80 1010.6
20260506181621 60 189 7.0 0.0 0.00 0.00 0.00 77 1100.1
20260506181506 61 0 0.0 0.0 0.00 0.00 0.00 79 1010.7
20260506181006 62 0 0.0 0.0 0.00 0.00 0.00 78 1010.8
20260506180506 62 0 0.0 0.0 0.00 0.00 0.00 77 1010.8
20260506180116 62 172 7.0 0.0 0.00 0.00 0.00 74 1100.1
20260506180006 62 0 0.0 0.0 0.00 0.00 0.00 77 1010.9
20260506175006 63 0 0.0 0.0 0.00 0.00 0.00 77 1011.2
20260506174614 62 245 10.0 0.0 0.00 0.00 0.00 74 1100.1
20260506173506 63 0 0.0 0.0 0.00 0.00 0.00 77 1011.1
20260506173127 63 231 9.0 0.0 0.00 0.00 0.00 74 1100.1
20260506173006 64 0 0.0 0.0 0.00 0.00 0.00 75 1011.0
20260506172506 63 0 0.0 0.0 0.00 0.00 0.00 77 1011.1
20260506171626 62 257 8.0 0.0 0.00 0.00 0.00 76 1100.1
20260506170507 61 0 0.0 0.0 0.00 0.00 0.00 78 1011.5
20260506170133 61 227 8.0 0.0 0.00 0.00 0.00 76 1100.1
20260506164637 62 236 7.0 0.0 0.00 0.00 0.00 75 1100.1
20260506164505 63 0 0.0 0.0 0.00 0.00 0.00 77 1011.6
20260506164006 62 0 0.0 0.0 0.00 0.00 0.00 78 1011.7
20260506163145 62 228 6.0 0.0 0.00 0.00 0.00 75 1100.1
20260506163006 63 0 0.0 0.0 0.00 0.00 0.00 77 1011.9
20260506161628 62 209 6.0 0.0 0.00 0.00 0.00 75 1100.1
20260506160506 63 0 0.0 0.0 0.00 0.00 0.00 77 1012.2
20260506160006 63 0 0.0 0.0 0.00 0.00 0.00 75 1012.2
20260506160001 62 237 8.0 0.0 0.00 0.00 0.00 75 1100.1
20260506154505 62 233 8.0 0.0 0.00 0.00 0.00 75 1100.1
20260506153129 61 228 9.0 0.0 0.00 0.00 0.00 75 1100.1
20260506153006 62 0 0.0 0.0 0.00 0.00 0.00 77 1012.6
20260506152506 62 0 0.0 0.0 0.00 0.00 0.00 78 1012.5
20260506151514 61 192 7.0 0.0 0.00 0.00 0.00 77 1100.1
20260506150007 60 256 8.0 0.0 0.00 0.00 0.00 77 1100.1
20260506145506 60 0 0.0 0.0 0.00 0.00 0.00 80 1012.6
20260506145006 61 0 0.0 0.0 0.00 0.00 0.00 79 1012.5
20260506144506 60 213 8.0 0.0 0.00 0.00 0.00 77 1100.1
20260506143113 60 236 8.0 0.0 0.00 0.00 0.00 77 1100.1
20260506143006 61 0 0.0 0.0 0.00 0.00 0.00 80 1012.3
20260506142506 61 0 0.0 0.0 0.00 0.00 0.00 79 1012.2
20260506141624 62 224 7.0 0.0 0.00 0.00 0.00 74 1100.1
20260506141506 62 0 0.0 0.0 0.00 0.00 0.00 77 1012.5
20260506140506 62 0 0.0 0.0 0.00 0.00 0.00 79 1012.4
20260506140136 62 148 6.0 0.0 0.00 0.00 0.00 75 1100.1
20260506135007 61 0 0.0 0.0 0.00 0.00 0.00 80 1012.7
20260506134631 62 220 6.0 0.0 0.00 0.00 0.00 75 1100.1
20260506133507 61 0 0.0 0.0 0.00 0.00 0.00 81 1012.7
20260506133011 61 225 8.0 0.0 0.00 0.00 0.00 77 1100.1
20260506133006 61 0 0.0 0.0 0.00 0.00 0.00 82 1012.6
20260506132505 60 0 0.0 0.0 0.00 0.00 0.00 82 1012.6
20260506131609 60 230 6.0 0.0 0.00 0.00 0.00 77 1100.1
20260506130007 60 0 0.0 0.0 0.00 0.00 0.00 81 1012.4
20260506125007 60 0 0.0 0.0 0.00 0.00 0.00 83 1012.6
20260506124622 60 236 5.0 0.0 0.00 0.00 0.00 78 1100.1
20260506124006 59 0 0.0 0.0 0.00 0.00 0.00 83 1012.7
20260506123125 59 225 6.0 0.0 0.00 0.00 0.00 80 1100.1
20260506122506 59 0 0.0 0.0 0.00 0.00 0.00 84 1012.7
20260506121622 59 236 5.0 0.0 0.00 0.00 0.00 80 1100.1
20260506120131 59 244 6.0 0.0 0.00 0.00 0.00 82 1100.1
20260506114634 58 227 4.0 0.0 0.00 0.00 0.00 83 1100.1
20260506114506 57 0 0.0 0.0 0.00 0.00 0.00 88 1013.0
20260506114006 57 0 0.0 0.0 0.00 0.00 0.00 88 1013.0
20260506113506 57 0 0.0 0.0 0.00 0.00 0.00 88 1013.1
20260506113008 57 238 5.0 0.0 0.00 0.00 0.00 83 1100.1
20260506112006 57 0 0.0 0.0 0.00 0.00 0.00 90 1012.9
20260506111526 57 225 4.0 0.0 0.00 0.00 0.00 84 1100.1
20260506111007 56 0 0.0 0.0 0.00 0.00 0.00 91 1012.9
20260506110506 55 0 0.0 0.0 0.00 0.00 0.00 91 1013.0
20260506110108 56 189 6.0 0.0 0.00 0.00 0.00 86 1100.1
20260506105006 55 0 0.0 0.0 0.00 0.00 0.00 91 1013.2
20260506104612 55 216 4.0 0.0 0.00 0.00 0.00 87 1100.1
20260506104505 55 0 0.0 0.0 0.00 0.00 0.00 91 1013.1
20260506104006 55 0 0.0 0.0 0.00 0.00 0.00 91 1013.1
20260506103017 54 190 5.0 0.0 0.00 0.00 0.00 87 1100.1
20260506102006 55 0 0.0 0.0 0.00 0.00 0.00 91 1012.9
20260506101638 54 217 5.0 0.0 0.00 0.00 0.00 87 1100.1
20260506101506 55 0 0.0 0.0 0.00 0.00 0.00 91 1012.9
20260506100506 55 0 0.0 0.0 0.00 0.00 0.00 91 1012.9
20260506100118 54 228 4.0 0.0 0.00 0.00 0.00 87 1100.1
20260506095506 55 0 0.0 0.0 0.00 0.00 0.00 91 1012.9
20260506095006 55 0 0.0 0.0 0.00 0.00 0.00 90 1012.9
20260506094631 55 267 5.0 0.0 0.00 0.00 0.00 87 1100.1
20260506094506 55 0 0.0 0.0 0.00 0.00 0.00 90 1013.0
20260506093506 55 0 0.0 0.0 0.00 0.00 0.00 90 1013.0
20260506093133 55 190 4.0 0.0 0.00 0.00 0.00 86 1100.1
20260506093007 55 0 0.0 0.0 0.00 0.00 0.00 90 1013.0
20260506092006 56 0 0.0 0.0 0.00 0.00 0.00 91 1013.1
20260506091555 56 229 5.0 0.0 0.00 0.00 0.00 86 1100.1
20260506091505 56 0 0.0 0.0 0.00 0.00 0.00 91 1013.1
20260506090506 56 0 0.0 0.0 0.00 0.00 0.00 91 1013.0
20260506090144 56 203 6.0 0.0 0.00 0.00 0.00 86 1100.1
20260506085006 56 0 0.0 0.0 0.00 0.00 0.00 91 1013.0
20260506084510 56 229 6.0 0.0 0.00 0.00 0.00 87 1100.1
20260506084006 56 0 0.0 0.0 0.00 0.00 0.00 92 1013.1
20260506083015 56 238 6.0 0.0 0.00 0.00 0.00 87 1100.1
20260506083006 56 0 0.0 0.0 0.00 0.00 0.00 92 1013.1
20260506082006 55 0 0.0 0.0 0.00 0.00 0.00 92 1013.1
20260506081503 55 227 5.0 0.0 0.00 0.00 0.00 87 1100.1
20260506081007 55 0 0.0 0.0 0.00 0.00 0.00 91 1013.2
20260506080506 55 0 0.0 0.0 0.00 0.00 0.00 91 1013.2
20260506080144 55 229 6.0 0.0 0.00 0.00 0.00 87 1100.1
20260506073137 54 228 4.0 0.0 0.00 0.00 0.00 87 1100.1
20260506072006 54 0 0.0 0.0 0.00 0.00 0.00 91 1013.1
20260506071626 54 216 5.0 0.0 0.00 0.00 0.00 87 1100.1
20260506071505 54 0 0.0 0.0 0.00 0.00 0.00 91 1013.1
20260506070506 54 0 0.0 0.0 0.00 0.00 0.00 91 1013.1
20260506070133 54 251 5.0 0.0 0.00 0.00 0.00 87 1100.1
20260506061634 54 236 3.0 0.0 0.00 0.00 0.00 86 1100.1
20260506061505 54 0 0.0 0.0 0.00 0.00 0.00 90 1013.0
20260506061006 54 0 0.0 0.0 0.00 0.00 0.00 90 1013.1